User: anonymous   Login
Location: Newark
(34.1333°N, 7.9667°W)
Time: 15:12:28
(UTC+00:00)
Language:

Tiros 1 - Orbit

View from above orbital plane
View from above orbital plane
View from above satellite
View from above satellite

Ground track
Ground track

The orbit data is extracted from the following two-line orbital elements,

1 00029U 60002B   21172.54111490 -.00000115  00000-0  13963-4 0  9991
2 00029  48.3808   6.6831 0023966  10.6592 349.4823 14.74435036273009
Epoch (UTC): 21 June 2021 12:59:12
Eccentricity: 0.0023966
inclination: 48.3808°
perigee height: 630 km
apogee height: 664 km
right ascension of ascending node: 6.6831°
argument of perigee: 10.6592°
revolutions per day: 14.74435036
mean anomaly at epoch: 349.4823°
orbit number at epoch: 27300

The dashed part of the orbit path shows where the satellite is in the earth's shadow,  

DLR